Regional Weather Roundup
Issued by NWS

Home | Current Version | Previous Version | Graphics & Text | Print | Product List | Glossary On
Versions: 1 2 3 4 5 6 7 8 9 10 11 12 13 14 15 16 17 18 19 20 21 22 23 24 25 26 27 28 29 30 31 32 33 34 35 36 37 38 39 40 41 42 43 44 45 46 47 48 49
000
ASUS45 KBOU 270907
RWRCO

WEATHER ROUNDUP FOR COLORADO
NATIONAL WEATHER SERVICE DENVER/BOULDER CO
200 AM MST TUE JAN 27 2015

NOTE: "FAIR" INDICATES FEW OR NO CLOUDS BELOW 12000 FEET WITH NO
SIGNIFICANT WEATHER AND/OR OBSTRUCTIONS TO VISIBILITY.

COZ001>005-013-030-031-271000-
...NORTHWEST COLORADO...

CITY           SKY/WX    TMP DP  RH WIND       PRES   REMARKS
CRAIG          PTCLDY    14  10  84 CALM      30.35S
HAYDEN         PTCLDY    27  19  74 E9        30.34S WCI  17
MEEKER         CLEAR     19  16  88 NE5       30.35S WCI  12
MOUNT WERNER   NOT AVBL
STEAMBOAT SPGS PTCLDY    23  20  91 CALM      30.36R
WALDEN         PTCLDY    23  16  74 SE3       30.38F
$$

COZ006>008-011-271000-
...WEST CENTRAL VALLEYS...

CITY           SKY/WX    TMP DP  RH WIND       PRES   REMARKS
GRAND JUNCTION PTCLDY    31  26  82 SE10      30.30F WCI  22
MONTROSE       CLEAR     28  22  78 S9        30.36F WCI  19
EAGLE          CLEAR     21  21 100 CALM      30.45R
RIFLE          CLEAR     28  23  81 CALM      30.36F
DELTA          CLEAR     30  23  77 CALM      30.35S
NUCLA          CLEAR     34  27  75 E6        30.37S WCI  29
$$

COZ017>023-064>068-271000-
...SOUTHWEST COLORADO...

CITY           SKY/WX    TMP DP  RH WIND       PRES   REMARKS
DURANGO        PTCLDY    30  24  78 NE3       30.37F
CORTEZ         CLEAR     28  22  78 CALM      30.33S
PAGOSA SPRINGS PTCLDY    29  22  76 CALM      30.42R
TELLURIDE      PTCLDY    37  18  46 CALM      30.43F
WOLF CREEK PAS NOT AVBL
$$

COZ009-010-012-014-032>034-037-058>063-271000-
...CENTRAL COLORADO...

CITY           SKY/WX    TMP DP  RH WIND       PRES   REMARKS
ASPEN          CLEAR     23  15  71 S7        30.39S WCI  15
BUENA VISTA    PTCLDY    26  19  75 NW3       30.42S
COPPER MTN     PTCLDY    37   7  28 S22       30.53F
BERTHOUD PASS  FAIR      30  27  86 W3        30.57S
COTTONWOOD PAS PTCLDY    43  10  26 SE3       30.45F
GUNNISON       PTCLDY     5  -8  56 CALM      30.50S
KREMMLING      MOCLDY    10   7  85 CALM      30.47S
LEADVILLE      CLEAR     29  11  47 NE5       30.45F WCI  24
MONARCH PASS   PTCLDY    32  12  43 SW18      30.64S WCI  20
SALIDA         PTCLDY    32  20  61 CALM      30.47F
SUNLIGHT       CLEAR     36  18  48 CALM        N/A
WILKERSON PASS MOCLDY    34  14  44 SW10G17   30.52S WCI  26
$$

COZ069>075-271000-
...SAN LUIS VALLEY/SANGRE DE CRISTO MOUNTAINS...

CITY           SKY/WX    TMP DP  RH WIND       PRES   REMARKS
ALAMOSA        MOCLDY    13   9  84 W6        30.43S WCI   4
LA VETA PASS   NOT AVBL
SAGUACHE       PTCLDY    25  19  80 CALM      30.44S
$$

COZ035-036-038>040-271000-
...NORTHERN COLORADO FRONT RANGE...

CITY           SKY/WX    TMP DP  RH WIND       PRES   REMARKS
DENVER INTL AP CLEAR     49  24  37 SW20      30.19F
DMNS CITY PARK   N/A     49  20  31 SW12      30.19F
AURORA         CLEAR     46  23  40 S14       30.21F
FRONT RANGE AP NOT AVBL
ERIE MUNI ARPT CLEAR     33  25  73 SW6       30.17F WCI  27
BOULDER MUN AP CLEAR     52  19  28 SW6       30.17F
CENTENNIAL     CLEAR     45  22  40 S8        30.22F
BROOMFIELD     CLEAR     46  21  36 CALM      30.20F
FORT COLLINS   CLEAR     37  21  52 E7        30.18S
LONGMONT       CLEAR     33  24  69 W3        30.19F
$$

COZ041-046-047-076>085-087-088-271000-
...PIKES PEAK/PALMER DIVIDE AND SOUTHERN FOOTHILLS...

CITY           SKY/WX    TMP DP  RH WIND       PRES   REMARKS
COLO. SPRINGS  CLEAR     37  25  61 N9        30.27F
A. F. ACADEMY  CLEAR     30  23  76 N12       30.28F WCI  20
ELLICOTT       CLEAR    N/A N/A N/A CALM      30.26S
FALCON         CLEAR     41  21  45 W8        30.30S
FORT CARSON    CLEAR     39  25  56 NW14      30.24F
LIMON          PTCLDY    30  24  78 N9        30.21F WCI  22
MONUMENT HILL  CLEAR     43  21  42 SW10      30.28F
TRINIDAD       CLEAR     41  24  51 SW18      30.27F
$$

COZ042>045-048>051-090-091-271000-
...NORTHEAST COLORADO...

CITY           SKY/WX    TMP DP  RH WIND       PRES   REMARKS
GREELEY ARPT   CLEAR     28  21  74 CALM      30.15F
AKRON          CLEAR     39  29  67 W16       30.14F
BURLINGTON     CLEAR     39  29  67 W12       30.15S
WRAY           PTCLDY    36  30  78 W9        30.11S
STERLING       CLEAR     36  32  87 SW9       30.13R
HOLYOKE        PTCLDY    37  32  81 W10       30.10S
FORT MORGAN    CLEAR     36  27  71 W8        30.16S
$$

COZ086-089-092>099-271000-
...SOUTHEAST COLORADO...

CITY           SKY/WX    TMP DP  RH WIND       PRES   REMARKS
PUEBLO         PTCLDY    30  26  85 W9        30.23S WCI  22
LA JUNTA       PTCLDY    40  30  67 SW12      30.20F
LAMAR          CLEAR     35  31  85 SW7       30.16F WCI  29
SPRINGFIELD      N/A     38  27  64 W3        30.19F
$$


USA.gov is the U.S. government's official web portal to all federal, state and local government web resources and services.